EHI
0 0 1 0 1 2 2 2 2 1 1 2 2 1 0 0 0 0 0 0 0 0 0 0 0 0 0 0 0 0 0 0 0 0 0 0 0 0 0 0 0 0 0
0 1 1 1 0 1 1 1 1 0 0 1 1 0 0 0 0 0 0 0 0 0 0 0 0 0 0 0 0 0 0 0 0 0 0 0 0 0 0 0 0 0 0
1 2 2 2 1 0 0 0 0 0 0 0 0 0 0 0 0 0 0 0 0 0 0 0 0 0 0 0 0 0 0 0 0 0 0 0 0 0 0 0 0 0 0
1 2 3 2 1 0 0 0 0 0 0 0 0 0 0 0 0 0 0 0 0 0 0 0 0 0 0 0 0 0 0 0 0 0 0 0 0 0 0 0 0 0 0
1 2 2 2 1 0 0 0 0 0 0 0 0 0 0 0 0 0 0 0 0 0 0 0 0 0 0 0 0 0 0 0 0 0 0 0 0 0 0 0 0 0 0
0 1 1 1 0 0 0 0 0 0 0 0 0 0 0 0 0 0 0 0 0 0 0 0 0 0 0 0 0 0 0 0 0 0 0 0 0 0 0 0 0 0 0
0 0 0 0 0 0 0 0 0 0 0 0 0 0 0 0 0 0 0 0 0 0 0 0 0 0 0 0 0 0 0 0 0 0 0 0 0 0 0 0 0 0 0
0 0 0 0 0 0 0 0 0 0 0 0 0 0 0 0 0 0 0 0 0 0 0 0 0 0 0 0 0 0 0 0 0 0 0 0 0 0 0 0 0 0 0
0 0 1 1 0 0 0 0 0 0 0 0 0 0 0 0 0 0 0 0 0 0 0 0 0 0 0 0 0 0 0 0 0 0 0 0 0 0 0 0 0 0 0
0 0 1 1 0 0 0 0 0 0 0 0 0 0 0 0 0 0 0 0 0 0 0 0 0 0 0 0 0 0 0 0 0 0 0 0 0 0 0 0 0 0 0
0 0 0 0 0 0 0 0 0 0 0 0 0 0 0 0 0 0 0 0 0 0 0 0 0 0 0 0 0 0 0 0 0 0 0 0 0 0 0 0 0 0 0
0 0 0 0 0 0 0 0 0 0 0 0 0 0 0 0 0 0 0 0 0 0 0 0 0 0 0 0 0 0 0 0 0 0 0 0 0 0 0 0 0 0 0
0 0 0 0 0 0 0 0 0 0 0 0 0 0 0 0 0 0 0 0 0 0 0 0 0 0 0 0 0 0 0 0 0 0 0 0 0 0 0 0 0 0 0
0 0 0 0 1 0 0 0 0 0 0 0 0 0 0 0 0 0 0 0 0 0 0 0 0 0 0 0 0 0 0 0 0 0 0 0 0 0 0 0 0 0 0
0 0 0 0 0 0 0 0 0 0 0 0 0 0 0 0 0 0 0 0 0 0 0 0 0 0 0 0 0 0 0 0 0 0 0 0 0 0 0 0 0 0 0
0 0 0 0 0 0 0 0 0 0 0 0 0 0 0 0 0 0 0 0 0 0 0 0 0 0 0 0 0 0 0 0 0 0 0 0 0 0 0 0 0 0 0
0 0 0 0 0 0 0 0 0 0 0 0 0 0 0 0 0 0 0 0 0 0 0 0 0 0 0 0 0 0 0 0 0 0 0 0 0 0 0 0 0 0 0
0 0 0 0 0 0 0 0 0 0 0 0 0 0 0 0 0 0 0 0 0 0 0 0 0 0 0 0 0 0 0 0 0 0 0 0 0 0 0 0 0 0 0
0 0 0 0 0 0 0 0 0 0 0 0 0 0 0 0 0 0 0 0 0 0 0 0 0 0 0 0 0 0 0 0 0 0 0 0 0 0 0 0 0 0 0
0 0 0 0 0 0 0 0 0 0 0 0 0 0 0 0 0 0 0 0 0 0 0 0 0 0 0 0 0 0 0 0 0 0 0 0 0 0 0 0 0 0 0
0 0 0 0 0 0 0 0 0 0 0 0 0 0 0 0 0 0 0 0 0 0 0 0 0 0 0 0 0 0 0 0 0 0 0 0 0 0 0 0 0 0 0
0 0 0 0 0 0 0 0 0 0 0 0 0 0 0 0 0 0 0 0 0 0 0 0 0 0 0 0 0 0 0 0 0 0 0 0 0 0 0 0 0 0 0
0 0 0 0 0 0 0 0 0 0 0 0 0 0 0 0 0 0 0 0 0 0 0 0 0 0 0 0 0 0 0 0 0 0 0 0 0 0 0 0 0 0 0
0 0 0 0 0 0 0 0 0 0 0 0 0 0 0 0 0 0 0 0 0 0 0 0 0 0 0 0 0 0 0 0 0 0 0 0 0 0 0 0 0 0 0
0 0 0 0 0 0 0 0 0 0 0 0 0 0 0 0 0 0 0 0 0 0 0 0 0 0 0 0 0 0 0 0 0 0 0 0 0 0 0 0 0 0 0
0 0 0 0 0 0 0 0 0 0 0 0 0 0 0 0 0 0 0 0 0 0 0 0 0 0 0 0 0 0 0 0 0 0 0 0 0 0 0 0 0 0 0
Wind_Speed
9 9 8 6 4 4 3 4 3 3 3 2 1 1 1 2 2 2 2 3 3 3 3 3 3 2 2 2 3 2 3 2 2 1 2 2 2 2 2 1 1 1 1
8 9 8 7 4 4 4 3 3 3 4 3 1 0 1 1 0 1 2 3 3 3 4 3 2 3 2 2 3 2 2 2 2 1 1 1 1 1 2 1 1 0 0
7 10 8 7 5 5 4 3 3 4 4 2 1 2 1 1 1 1 1 2 2 2 2 3 3 3 2 1 2 1 1 2 2 1 0 0 0 1 1 1 1 1 0
6 8 8 7 6 6 5 3 3 3 4 2 2 1 1 1 1 1 1 2 2 2 1 3 3 2 1 1 2 1 1 1 1 2 1 1 0 1 0 1 0 1 1
6 8 8 7 6 6 5 3 4 3 4 2 2 1 1 1 1 1 1 2 1 1 1 1 3 2 1 1 1 1 1 1 1 1 1 1 1 0 1 0 1 1 1
6 7 8 6 6 6 5 3 3 4 3 1 2 2 1 1 2 2 1 2 1 1 1 2 2 2 1 1 1 2 1 1 1 1 1 0 0 0 0 0 0 1 1
7 7 8 7 6 7 5 4 4 4 3 2 2 1 2 0 1 1 1 2 2 1 1 2 2 1 2 2 1 2 1 1 1 1 1 1 1 0 0 0 0 1 1
6 7 8 7 7 7 6 5 4 4 3 2 1 0 1 0 0 1 1 2 1 1 1 2 1 1 1 2 1 1 2 1 1 2 1 1 1 0 0 1 0 0 1
7 7 8 8 8 7 6 5 5 4 4 2 2 1 0 1 1 1 1 1 2 1 2 2 2 1 1 1 1 1 1 1 1 1 1 1 1 0 0 0 1 1 0
7 8 8 8 7 7 6 6 5 4 4 3 2 2 1 1 0 1 2 2 3 2 2 2 2 1 1 1 1 1 1 1 1 1 1 1 1 1 0 1 1 1 1
6 7 7 7 7 7 7 6 6 5 4 4 3 2 2 1 1 1 1 2 2 2 1 1 1 2 2 1 1 0 1 1 1 1 1 1 1 1 1 1 1 1 1
6 7 7 7 7 7 7 7 6 6 5 3 2 2 2 3 1 1 1 2 2 1 1 1 1 2 2 2 1 1 1 1 1 1 0 1 0 1 1 1 1 1 1
6 7 7 7 7 7 7 7 6 6 6 4 3 3 3 2 1 0 1 2 2 2 1 1 1 1 1 2 1 1 1 0 0 0 0 0 1 0 0 1 1 1 1
7 7 7 7 7 7 7 6 6 6 6 6 4 3 2 2 2 1 0 1 2 2 2 1 1 1 2 2 2 2 1 1 1 1 1 1 1 1 1 0 0 0 0
6 7 8 8 8 7 7 7 7 7 7 7 5 4 3 2 2 1 1 0 1 2 2 2 2 2 2 3 3 4 3 2 1 1 1 1 2 3 1 0 0 1 0
5 6 8 8 9 9 8 7 7 7 7 7 6 4 3 3 2 1 1 1 1 1 1 1 2 2 2 4 5 4 3 3 1 1 0 1 2 2 2 1 1 1 1
3 4 5 7 8 9 9 8 8 7 7 7 6 6 4 4 3 2 2 1 1 0 1 1 1 1 2 3 4 5 3 3 2 1 0 0 1 2 1 1 2 2 3
3 3 4 5 7 8 9 9 8 8 7 7 7 6 5 4 3 3 2 1 1 1 1 1 0 1 1 1 3 5 3 2 1 1 0 0 1 2 1 0 1 1 1
2 3 3 4 5 7 8 9 9 8 8 7 7 7 7 5 4 4 3 2 1 1 1 1 1 1 1 0 1 3 2 2 1 0 1 1 2 3 4 1 1 1 1
1 2 2 3 4 5 6 8 8 8 8 8 7 7 7 6 5 5 4 3 3 2 2 2 2 1 1 1 1 2 2 2 1 1 2 3 3 4 4 2 1 1 1
1 1 2 2 3 4 5 7 7 8 8 8 7 6 6 6 6 4 3 3 3 3 2 2 2 2 2 2 1 1 1 2 2 1 1 2 4 4 4 2 1 1 2
1 1 2 2 2 4 5 6 6 6 7 8 7 6 6 6 6 5 4 3 3 3 3 2 2 2 3 3 2 1 1 2 2 2 2 2 3 3 2 2 2 4 3
2 2 2 2 3 4 5 6 6 6 8 8 7 7 6 5 5 5 5 3 3 2 2 2 2 1 2 2 3 2 1 1 0 1 2 2 2 1 1 2 3 3 2
2 3 3 3 4 4 4 5 6 7 8 8 8 7 7 6 5 4 3 3 2 1 1 1 1 1 2 2 1 0 0 0 0 0 0 1 1 2 2 3 2 1 2
3 3 4 4 5 4 5 5 5 7 8 9 8 7 6 6 5 4 2 3 2 2 2 1 1 2 2 2 3 2 1 1 1 1 1 1 2 2 2 3 3 3 3
4 3 4 4 5 5 5 5 6 6 8 8 8 6 6 6 6 7 5 6 5 6 7 6 5 4 5 5 5 5 5 4 3 2 2 2 2 2 2 2 2 3 3
Wind_Direction
157 142 139 130 135 134 120 107 117 109 95 72 29 25 11 347 16 13 30 358 343 348 338 332 332 338 324 315 320 323 321 312 301 315 318 275 199 177 211 235 272 256 197
144 137 141 140 153 137 122 118 109 96 94 94 20 71 31 321 22 10 22 350 359 1 342 342 330 320 317 324 319 321 319 311 322 345 333 323 342 290 216 204 203 259 34
154 152 152 145 148 137 130 122 111 110 104 120 72 24 11 317 349 1 30 356 356 358 335 324 317 314 318 314 305 315 316 296 308 333 116 116 251 287 279 203 167 192 155
154 147 148 148 152 140 126 131 118 111 108 101 79 358 334 340 353 11 15 340 360 359 328 316 311 305 312 327 314 325 307 284 297 312 308 291 150 147 328 326 289 210 178
149 143 145 144 144 129 123 124 115 103 97 89 124 263 340 354 354 349 359 334 329 312 320 310 300 305 306 297 292 309 299 284 274 289 309 321 333 350 123 186 295 306 272
140 139 137 135 134 124 127 133 128 114 113 159 203 186 116 358 329 324 343 320 305 306 350 328 323 332 333 318 305 283 273 251 260 274 297 312 332 324 56 183 245 253 276
147 147 144 147 140 137 144 156 148 136 143 209 239 160 130 272 304 327 330 315 320 335 343 343 327 334 323 309 290 285 263 241 235 233 242 282 284 266 61 50 327 288 273
151 150 149 149 147 151 159 167 155 156 164 209 233 106 128 171 304 314 311 306 310 308 314 310 313 327 318 312 305 272 259 235 240 239 214 232 264 291 180 146 118 343 321
153 153 152 155 156 162 166 167 164 171 168 188 198 176 97 108 325 303 303 303 299 314 342 338 342 342 347 343 340 317 332 339 287 290 288 239 230 199 269 81 146 149 199
161 159 156 161 162 163 164 166 172 175 165 187 199 168 194 173 230 299 332 323 317 335 332 347 342 359 21 11 20 337 324 312 239 215 229 239 216 159 185 203 219 165 165
162 157 156 162 160 159 164 170 177 178 170 186 187 177 162 217 229 236 291 292 297 312 324 340 342 12 18 18 58 301 335 310 301 285 215 246 221 177 210 204 199 194 176
156 155 158 161 164 169 174 178 179 174 164 174 182 178 189 203 220 223 260 282 302 311 324 5 35 34 18 16 23 14 324 299 326 312 325 290 276 171 213 196 208 198 187
162 160 161 168 171 174 177 178 176 167 160 168 186 206 201 167 192 270 341 318 330 334 336 29 49 30 20 18 5 7 343 301 201 172 120 358 20 77 209 198 213 222 208
169 165 167 174 173 175 180 180 174 167 163 164 185 212 201 167 178 140 305 326 337 334 345 22 53 38 29 17 5 353 339 10 44 52 70 59 56 50 23 10 326 308 102
173 172 174 179 175 179 183 182 175 173 171 169 185 194 195 164 153 157 180 41 338 334 9 16 20 28 36 24 18 354 347 2 28 27 56 90 109 104 111 104 339 343 267
184 180 181 182 179 183 186 181 177 176 172 174 177 166 175 153 157 175 135 82 323 338 13 16 17 31 34 30 28 9 335 331 355 43 86 146 149 152 148 159 195 204 221
184 188 192 187 185 186 182 178 176 174 175 174 166 161 172 163 171 166 136 175 214 192 339 346 21 63 53 37 13 357 330 312 324 1 64 14 109 137 162 192 202 224 244
172 189 204 191 186 185 176 172 169 171 175 173 164 162 164 166 167 160 167 207 192 167 216 249 262 120 90 52 354 338 307 290 294 267 204 204 86 72 72 224 210 218 254
167 178 202 202 192 184 173 168 170 172 173 170 167 166 167 168 169 178 186 191 196 208 215 221 222 204 149 130 353 351 306 293 293 331 55 65 72 59 48 36 301 257 269
125 162 194 210 191 178 166 169 175 175 175 171 171 170 164 163 173 185 187 184 187 204 213 221 221 193 142 136 45 358 317 320 334 40 82 73 68 60 45 35 12 359 324
92 162 192 207 187 171 167 177 181 181 171 162 162 161 160 167 174 177 180 187 187 195 211 223 215 167 135 133 113 57 1 336 343 15 50 60 67 62 44 38 48 317 314
215 204 210 207 186 175 176 187 188 168 151 151 159 166 167 176 172 170 185 194 189 194 209 215 216 172 143 132 145 133 32 348 357 4 46 66 67 52 35 26 358 347 350
234 214 226 218 203 193 188 193 179 156 151 156 164 169 172 175 166 168 180 188 192 193 202 194 188 165 134 128 134 143 92 16 49 50 58 77 62 13 28 14 5 8 8
251 214 218 223 220 209 202 198 170 160 161 168 172 177 179 173 164 155 157 156 162 174 185 168 157 133 101 77 56 116 153 97 82 58 60 77 58 37 20 14 17 30 35
260 227 221 225 228 215 205 194 176 174 178 179 178 182 180 168 153 130 103 132 112 143 152 125 97 103 105 82 60 67 64 69 78 56 60 55 51 51 49 43 35 33 31
271 251 236 227 231 223 211 193 186 190 191 188 184 181 172 162 153 140 116 68 100 105 103 103 110 93 105 116 92 80 72 68 66 77 78 69 63 60 53 45 36 38 31